Tracking 30922 objects as of 2-Jul-2025
HD Live streaming from Space Station
objects crossing your sky now

FENGYUN 1C DEB

Track FENGYUN 1C DEB now!
10-day predictions


NORAD ID: 30882
Int'l Code: 1999-025AXU
Perigee: 514.6 km
Apogee: 743.2 km
Inclination: 98.0 °
Period: 97.1 minutes
Semi major axis: 6999 km
RCS: 0.0116 m2 (small)
Launch date: May 10, 1999
Source: People's Republic of China (PRC)
Launch site: Taiyaun Space Center, China (TSC)

Note: This is SATELLITE DEBRIS
Your satellite tracking list
R2
Track 1 satellite(s)




NASA's NSSDC Master Catalog

Two Line Element Set (TLE):
1 30882U 99025AXU 25181.89224522  .00005427  00000-0  54257-3 0  9991
2 30882  97.9633 237.6133 0163279 218.0079 140.9523 14.82410108972090
Source of the keplerian elements: AFSPC